Weather in Zaovrazhnoye

Russia / Kaliningrad Oblast     54°37′22″N   21°37′08″E
temp.,
°C
wind,
m/s
gust,
m/s
humid.,
%
clouds,
%
prec.,
mm/h
press.,
hPa
HPBL,
m
15 june, tue
tue1523:00+13s33895 0.0 101843
02:00+12ssw388593 0.0 1017136
05:00+12ssw31084100 0.0 1016213
08:00+18sw4875100 0.0 1016350
11:00+21w4669100 0.0 1016932
14:00+19wnw4782100 0.3 1016824
17:00+18nw566344 0.3 1017883
20:00+13nw258155 0.3 1018154
16 june, wed
wed1623:00+9nw22955 0.0 101926
02:00+8wnw119560 0.0 101910
05:00+8sw119324 0.0 102011
08:00+15s117273 0.0 1021281
11:00+20sw115540 0.0 10211084
14:00+22w115063 0.0 10211576
17:00+22nw11527 0.0 10201486
20:00+17nne23820 0.0 102178
17 june, thu
thu1723:00+12ene22910 0.0 102220
02:00+11se22915 0.0 102313
05:00+11se22905 0.0 102320
08:00+17se24674 0.0 1024347
11:00+22se33544 0.0 10241100
14:00+24se23470 0.0 10231388
17:00+24sse34540 0.0 10231389
20:00+19ese22750 0.0 102226
18 june, fri
fri1823:00+15se34820 0.0 102365
02:00+14se36940 0.0 102396
05:00+15sse37930 0.0 1022134
08:00+21sse47740 0.0 1022387
11:00+25sse57610 0.0 1021949
14:00+28sse57554 0.0 10211844
17:00+28sse57601 0.0 10191564
20:00+23sse410780 0.0 1019297
19 june, sat
sat1923:00+19se412840 0.0 1020312
02:00+17sse411810 0.0 1021230
05:00+16sse411855 0.0 1020231
08:00+22s59765 0.0 1020456
11:00+26s686296 0.0 10201164
14:00+28s57545 0.0 10191617
17:00+28s46580 0.0 10181601
20:00+24sse38801 0.0 1018211